SL-16 R/B, 23705

Orbit data source: Space-Track

SL-16 R/B, 23705 is space debris in LEO originally from a launch on Tue, 31 Oct 1995 UTC launched from the Tyuratam Missile And Space Complex (TTMTR). Debris objects in space refer to the collection of defunct objects orbiting the Earth. Examples of debris include non-operational satellites, rocket bodies, and fragments generated from explosions, collisions, or faulty payload assembly.

Loading next visibility...
Identifier
23705, 1995-058B
Orbit
LEO
Last TLE update
12 hours ago
Origin
Manufacturer
Yuzhnoe
Mission
Spacecraft
Bus & Motor
11S772, Unknown motor
Mass
9,000 kg wet, 9,000 kg dry
Launch date (UTC)
1995-10-31 (30 years ago)
Launch vehicle
Unknown
Launch site
Tyuratam Missile And Space Complex (TTMTR)
Object type
Payload
Rocket body
Debris
Shape & HBR
Cyl, 10.4 m
Radar Cross Section
37.829 m², Large (>1 m²)

Expand to show TLE details & history

TLE from 12 hours ago
0 SL-16 R/B
1 23705U 95058B   25186.85707646 -.00000195  00000-0 -75728-4 0  9999
2 23705  71.0228 338.4582 0011035 144.3683 215.8179 14.15453926532925
Epoch: 2025-07-05T20:34Z
TLE epoch observation values (Epoch: 2025-07-05T20:34:11.406Z)
Latitude
0.00002°
Longitude
105.82157°
Altitude
849.634 km
Speed
7.425 km/s
True Right ascension
22h 33m 49s
True Declination
0° 00' 00"
Sunlit
Object was in full shadow at epoch
Visualization orbit readout
Latitude
-31.43564°
Longitude
92.72811°
Altitude
859.975 km
Speed
7.418 km/s
Apparent Right ascension
00h 53m 24s
Apparent Declination
-72° 44' 38"
Sunlit
Object is in full shadow
Visualization observer readout
Local Sidereal Time
20:14:54
Azimuth
160.805° S
Elevation
-32.246°
Doppler factor
1
Orbital elements
Apogee altitude
846.654 km
Perigee altitude
830.727 km
Semi-major axis
7,216.828 km
Eccentricity
0.0011
Inclination
71.0228°
RAAN
338.4582°
Arg. of periapsis
144.3683°
True anomaly
Unknown
Mean anomaly
215.8179°
Eccentric anomaly
Unknown
Mean motion
3.54017 °/min
Orbital period
101.69 mins
BSTAR
-0.000075728
Loading maneuver chart data...
Loading SW <> Apogee altitude chart data...
Loading historical data...
Loading historical data...
Loading historical data...
Loading historical data...
Loading historical data...
Loading historical data...
Loading historical data...

SL-16 R/B Visibility forecast

Observer location: undefined°, undefined°

Span
Click to sort rows by Start time (UTC) header in descending order
Start Az.
Max El. time (UTC)
Max El. Az.
Max El.
End time (UTC)
End Az.
6 mins2025-07-06 10:16:06.205Z137.255° SSE2025-07-06 10:19:06.205Z101.125° ESE18.309°2025-07-06 10:22:06.205Z64.142° ENE
9 mins2025-07-06 11:59:06.205Z225.282° WSW2025-07-06 12:03:06.205Z313.476° NW39.148°2025-07-06 12:08:06.205Z14.558° NNE
9 mins2025-07-06 20:53:06.205Z347.876° N2025-07-06 20:57:06.205Z60.214° ENE41.006°2025-07-06 21:02:06.205Z143.133° SSE
5 mins2025-07-06 22:39:06.205Z280.4° WNW2025-07-06 22:41:06.205Z254.458° W16.481°2025-07-06 22:44:06.205Z221.516° SW
|